Location: Vale
(35.4830°N, 81.3830°W)
Time: 06:14:58
(UTC-04:00)

SR - All Passes

Search period start: 28 September 2016 00:00
Search period end: 08 October 2016 00:00
Orbit: 584 x 874 km, 66.7° (Epoch: 26 September)

Date Brightness Start Highest point End Pass type
(mag) Time Alt. Az. Time Alt. Az. Time Alt. Az.
28 Sep - 09:54:49 10° SW 09:59:09 62° WNW 10:03:23 10° NNE daylight
28 Sep - 18:37:39 10° NNW 18:42:06 42° ENE 18:46:52 10° SE daylight
28 Sep - 20:20:30 10° WNW 20:23:54 19° WSW 20:27:28 10° SSW visible
29 Sep - 09:05:36 10° S 09:09:53 53° ESE 09:14:02 10° NE daylight
29 Sep - 10:50:05 10° W 10:52:12 13° NW 10:54:17 10° NNW daylight
29 Sep - 17:49:05 10° N 17:52:36 21° NE 17:56:18 10° ESE daylight
29 Sep - 19:30:16 10° NW 19:34:44 42° WSW 19:39:34 10° S visible
30 Sep - 08:17:21 10° SSE 08:20:44 22° ESE 08:24:02 10° ENE daylight
30 Sep - 09:58:50 10° WSW 10:02:35 28° WNW 10:06:16 10° N daylight
30 Sep - 17:02:25 10° NE 17:02:54 10° NE 17:03:23 10° NE daylight
30 Sep - 18:40:45 10° NNW 18:45:29 87° ENE 18:50:38 10° SSE daylight
01 Oct - 09:08:49 10° SW 09:13:10 65° WNW 09:17:24 10° NNE daylight
01 Oct - 17:51:41 10° N 17:56:07 40° ENE 18:00:53 10° SE daylight
01 Oct - 19:34:24 10° WNW 19:37:56 20° WSW 19:41:40 10° SSW visible
02 Oct - 08:19:40 10° S 08:23:54 50° ESE 08:28:01 10° NE daylight
02 Oct - 10:03:55 10° W 10:06:11 14° NW 10:08:26 10° NNW daylight
02 Oct - 17:03:09 10° N 17:06:36 20° NE 17:10:14 10° E daylight
02 Oct - 18:44:14 10° NW 18:48:46 44° WSW 18:53:41 10° S daylight
03 Oct - 07:31:30 10° SSE 07:34:45 21° ESE 07:37:57 10° ENE daylight
03 Oct - 09:12:47 10° WSW 09:16:35 29° WNW 09:20:19 10° N daylight
03 Oct - 17:54:45 10° NNW 17:59:30 83° ENE 18:04:41 10° SSE daylight
04 Oct - 08:22:50 10° SSW 08:27:10 69° WNW 08:31:25 10° NNE daylight
04 Oct - 17:05:43 10° N 17:10:08 38° ENE 17:14:53 10° SE daylight
04 Oct - 18:48:18 10° WNW 18:51:58 22° WSW 18:55:52 10° SSW daylight
05 Oct - 07:33:43 10° S 07:37:55 47° ESE 07:42:00 10° NE daylight
05 Oct - 09:17:45 10° W 09:20:09 15° NW 09:22:34 10° NNW daylight
05 Oct - 16:17:12 10° N 16:20:37 19° NE 16:24:10 10° E daylight
05 Oct - 17:58:11 10° NW 18:02:48 47° WSW 18:07:47 10° S daylight
06 Oct - 06:45:39 10° SSE 06:48:47 19° ESE 06:51:51 10° ENE visible
06 Oct - 08:26:44 10° WSW 08:30:34 30° WNW 08:34:22 10° N daylight
06 Oct - 17:08:44 10° NNW 17:13:31 79° ENE 17:18:44 10° SSE daylight
07 Oct - 07:36:50 10° SSW 07:41:10 74° WNW 07:45:25 10° NNE daylight
07 Oct - 16:19:44 10° N 16:24:08 37° ENE 16:28:53 10° SE daylight
07 Oct - 18:02:12 10° WNW 18:06:00 23° WSW 18:10:02 10° SSW daylight
